When you browse on this site, cookies collect data to enhance your experience and personalize the content and advertising you see.
Visit our Privacy Policy to learn more. By continuing to use the site, you agree to this use of cookies and data.
  • Em Portugal
  • Lista de países
  • Para 7 dias
  • Temperatura da água
  • Mapas de satélite
  • Mapa do tempo
  • Widgets de tempo
  • user-avatar
    Iniciar Sessão

    Previsão horária em Kryuchkovo

    Hoje, 20 Fevereiro, Quarta-feira

    Tempo Temperatura Precipitação Vento Pressão Humidade
    00:00 0°C° 0.1 mm 5 m/s 735 mmHg 90%
    01:00 0°C° 0.1 mm 5 m/s 735 mmHg 91%
    02:00 0°C° 0.1 mm 5 m/s 734 mmHg 91%
    03:00 0°C° 0.3 mm 5 m/s 734 mmHg 91%
    04:00 0°C° 0.3 mm 5 m/s 734 mmHg 92%
    05:00 0°C° 0.3 mm 5 m/s 734 mmHg 92%
    06:00 0°C° 0.1 mm 5 m/s 734 mmHg 91%
    07:00 0°C° 0.1 mm 4 m/s 734 mmHg 91%
    08:00 0°C° 0.1 mm 4 m/s 733 mmHg 91%
    09:00 0°C° 0.3 mm 5 m/s 733 mmHg 89%
    10:00 0°C° 0.3 mm 5 m/s 733 mmHg 88%
    11:00 +1°C° 0.3 mm 5 m/s 733 mmHg 87%
    12:00 +1°C° 0.3 mm 5 m/s 732 mmHg 86%
    13:00 +1°C° 0.3 mm 5 m/s 732 mmHg 86%
    14:00 +1°C° 0.3 mm 5 m/s 732 mmHg 85%
    15:00 +1°C° 0.6 mm 5 m/s 732 mmHg 86%
    16:00 0°C° 0.6 mm 5 m/s 731 mmHg 87%
    17:00 0°C° 0.6 mm 4 m/s 731 mmHg 89%
    18:00 -1°C° 0.4 mm 4 m/s 731 mmHg 85%
    19:00 -2°C° 0.4 mm 5 m/s 732 mmHg 82%
    20:00 -4°C° 0.4 mm 5 m/s 732 mmHg 78%
    21:00 -5°C° 0.2 mm 5 m/s 732 mmHg 80%
    22:00 -5°C° 0.2 mm 6 m/s 733 mmHg 82%
    23:00 -5°C° 0.2 mm 6 m/s 733 mmHg 84%

    Amanhã, 21 Fevereiro, Quinta-feira

    Tempo Temperatura Precipitação Vento Pressão Humidade
    00:00 -6°C° 0.2 mm 6 m/s 734 mmHg 83%
    01:00 -6°C° 0.2 mm 6 m/s 734 mmHg 82%
    02:00 -6°C° 0.2 mm 6 m/s 735 mmHg 80%
    03:00 -8°C° 0.1 mm 6 m/s 735 mmHg 80%
    04:00 -8°C° 0.1 mm 6 m/s 736 mmHg 79%
    05:00 -8°C° 0.1 mm 6 m/s 736 mmHg 79%
    06:00 -9°C° 0.2 mm 7 m/s 737 mmHg 79%
    07:00 -9°C° 0.2 mm 7 m/s 738 mmHg 78%
    08:00 -9°C° 0.2 mm 7 m/s 739 mmHg 78%
    09:00 -9°C° 0.1 mm 7 m/s 739 mmHg 77%
    10:00 -9°C° 0.1 mm 7 m/s 740 mmHg 75%
    11:00 -9°C° 0.1 mm 7 m/s 741 mmHg 74%
    12:00 -9°C° 0.1 mm 7 m/s 742 mmHg 72%
    13:00 -9°C° 0.1 mm 6 m/s 743 mmHg 71%
    14:00 -10°C° 0.1 mm 6 m/s 743 mmHg 69%
    15:00 -10°C° 0 mm 6 m/s 744 mmHg 70%
    16:00 -11°C° 0 mm 6 m/s 745 mmHg 71%
    17:00 -11°C° 0 mm 6 m/s 746 mmHg 72%
    18:00 -12°C° 0.1 mm 5 m/s 746 mmHg 72%
    19:00 -12°C° 0.1 mm 5 m/s 747 mmHg 72%
    20:00 -12°C° 0.1 mm 5 m/s 748 mmHg 72%
    21:00 -13°C° 0 mm 5 m/s 748 mmHg 72%
    22:00 -13°C° 0 mm 5 m/s 749 mmHg 72%
    23:00 -13°C° 0 mm 5 m/s 750 mmHg 72%

    Depois de amanhã, 22 Fevereiro, Sexta-feira

    Tempo Temperatura Precipitação Vento Pressão Humidade
    00:00 -14°C° 0 mm 5 m/s 750 mmHg 73%
    01:00 -14°C° 0 mm 5 m/s 751 mmHg 74%
    02:00 -14°C° 0 mm 4 m/s 751 mmHg 75%
    03:00 -14°C° 0 mm 5 m/s 752 mmHg 75%
    04:00 -14°C° 0 mm 5 m/s 752 mmHg 75%
    05:00 -14°C° 0 mm 5 m/s 753 mmHg 75%
    06:00 -14°C° 0 mm 5 m/s 753 mmHg 75%
    07:00 -14°C° 0 mm 5 m/s 754 mmHg 74%
    08:00 -14°C° 0 mm 5 m/s 754 mmHg 73%
    09:00 -14°C° 0 mm 6 m/s 755 mmHg 70%
    10:00 -12°C° 0 mm 6 m/s 755 mmHg 66%
    11:00 -11°C° 0 mm 6 m/s 755 mmHg 62%
    12:00 -11°C° 0 mm 6 m/s 755 mmHg 62%
    13:00 -12°C° 0 mm 7 m/s 755 mmHg 62%
    14:00 -11°C° 0 mm 7 m/s 755 mmHg 62%
    15:00 -11°C° 0 mm 6 m/s 756 mmHg 64%
    16:00 -11°C° 0 mm 6 m/s 756 mmHg 66%
    17:00 -11°C° 0 mm 6 m/s 757 mmHg 68%
    18:00 -11°C° 0 mm 6 m/s 757 mmHg 71%
    19:00 -12°C° 0 mm 6 m/s 758 mmHg 73%
    20:00 -12°C° 0 mm 5 m/s 758 mmHg 76%
    21:00 -13°C° 0 mm 5 m/s 759 mmHg 77%
    22:00 -12°C° 0 mm 4 m/s 759 mmHg 78%
    23:00 -14°C° 0 mm 4 m/s 759 mmHg 78%

    23 Fevereiro, Sábado

    Tempo Temperatura Precipitação Vento Pressão Humidade
    00:00 -14°C° 0 mm 4 m/s 759 mmHg 81%
    01:00 -13°C° 0 mm 3 m/s 760 mmHg 83%
    02:00 -14°C° 0 mm 3 m/s 760 mmHg 86%
    03:00 -14°C° 0 mm 3 m/s 760 mmHg 87%
    04:00 -14°C° 0 mm 3 m/s 760 mmHg 89%
    05:00 -14°C° 0 mm 2 m/s 760 mmHg 90%
    06:00 -14°C° 0 mm 2 m/s 760 mmHg 90%
    07:00 -14°C° 0 mm 2 m/s 760 mmHg 91%
    08:00 -14°C° 0 mm 2 m/s 760 mmHg 91%
    09:00 -13°C° 0 mm 2 m/s 760 mmHg 84%
    10:00 -12°C° 0 mm 2 m/s 760 mmHg 78%
    11:00 -9°C° 0 mm 1 m/s 760 mmHg 71%
    12:00 -9°C° 0 mm 2 m/s 760 mmHg 68%
    13:00 -8°C° 0 mm 2 m/s 759 mmHg 65%
    14:00 -8°C° 0 mm 2 m/s 759 mmHg 61%
    15:00 -7°C° 0 mm 1 m/s 758 mmHg 65%
    16:00 -7°C° 0 mm 1 m/s 758 mmHg 68%
    17:00 -7°C° 0 mm 1 m/s 758 mmHg 71%
    18:00 -7°C° 0 mm 1 m/s 758 mmHg 74%
    19:00 -7°C° 0 mm 1 m/s 757 mmHg 76%
    20:00 -7°C° 0 mm 1 m/s 757 mmHg 78%
    21:00 -7°C° 0.1 mm 1 m/s 757 mmHg 82%
    22:00 -8°C° 0.1 mm 2 m/s 757 mmHg 86%
    23:00 -8°C° 0.1 mm 2 m/s 757 mmHg 89%

    24 Fevereiro, Domingo

    Tempo Temperatura Precipitação Vento Pressão Humidade
    00:00 -7°C° 0 mm 1 m/s 757 mmHg 91%
    01:00 -7°C° 0 mm 1 m/s 757 mmHg 92%
    02:00 -7°C° 0 mm 1 m/s 757 mmHg 94%
    03:00 -7°C° 0 mm 1 m/s 757 mmHg 94%
    04:00 -7°C° 0 mm 1 m/s 757 mmHg 95%
    05:00 -7°C° 0 mm 1 m/s 758 mmHg 96%
    06:00 -7°C° 0 mm 1 m/s 758 mmHg 96%
    07:00 -6°C° 0 mm 0 m/s 758 mmHg 95%
    08:00 -6°C° 0 mm 0 m/s 759 mmHg 95%
    09:00 -5°C° 0 mm 0 m/s 759 mmHg 90%
    10:00 -4°C° 0 mm 0 m/s 759 mmHg 86%
    11:00 -3°C° 0 mm 0 m/s 760 mmHg 82%
    12:00 -2°C° 0 mm 1 m/s 760 mmHg 81%
    13:00 -1°C° 0 mm 1 m/s 760 mmHg 80%
    14:00 -1°C° 0 mm 1 m/s 760 mmHg 79%
    15:00 -1°C° 0 mm 1 m/s 760 mmHg 82%
    16:00 -1°C° 0 mm 1 m/s 760 mmHg 85%
    17:00 -2°C° 0 mm 1 m/s 760 mmHg 89%
    18:00 -2°C° 0 mm 1 m/s 760 mmHg 90%
    19:00 -2°C° 0 mm 1 m/s 760 mmHg 92%
    20:00 -2°C° 0 mm 1 m/s 759 mmHg 93%
    21:00 -2°C° 0 mm 1 m/s 759 mmHg 94%
    22:00 -2°C° 0 mm 1 m/s 759 mmHg 95%
    23:00 -5°C° 0 mm 2 m/s 759 mmHg 96%

    25 Fevereiro, Segunda-feira

    Tempo Temperatura Precipitação Vento Pressão Humidade
    00:00 -5°C° 0 mm 2 m/s 758 mmHg 96%
    01:00 -5°C° 0 mm 2 m/s 758 mmHg 96%
    02:00 -6°C° 0 mm 3 m/s 757 mmHg 97%
    03:00 -6°C° 0 mm 3 m/s 757 mmHg 96%
    04:00 -5°C° 0 mm 3 m/s 756 mmHg 96%
    05:00 -5°C° 0 mm 3 m/s 756 mmHg 96%
    06:00 -5°C° 0.1 mm 3 m/s 755 mmHg 96%
    07:00 -3°C° 0.1 mm 2 m/s 755 mmHg 96%
    08:00 -3°C° 0.1 mm 2 m/s 755 mmHg 96%
    09:00 -2°C° 0.1 mm 2 m/s 755 mmHg 95%
    10:00 -1°C° 0.1 mm 3 m/s 755 mmHg 94%
    11:00 0°C° 0.1 mm 3 m/s 755 mmHg 92%
    12:00 0°C° 0 mm 3 m/s 754 mmHg 89%
    13:00 0°C° 0 mm 3 m/s 754 mmHg 85%
    14:00 0°C° 0 mm 3 m/s 754 mmHg 81%
    15:00 0°C° 0 mm 3 m/s 754 mmHg 83%
    16:00 -1°C° 0 mm 3 m/s 753 mmHg 86%
    17:00 -2°C° 0 mm 2 m/s 753 mmHg 88%
    18:00 -2°C° 0 mm 3 m/s 753 mmHg 88%
    19:00 -2°C° 0 mm 3 m/s 753 mmHg 89%
    20:00 -2°C° 0 mm 3 m/s 753 mmHg 89%
    21:00 -2°C° 0 mm 3 m/s 753 mmHg 90%
    22:00 -2°C° 0 mm 3 m/s 752 mmHg 92%
    23:00 -2°C° 0 mm 3 m/s 752 mmHg 93%
    Mostrar mais